FW3182 Weather Reports


Display with metric or nautical units.
time (UTC)temp
F
wind
direction
speed
MPH
gust
MPH
rain 1hr
in
rain 24hr
in
rain mn
in
humidity
%
barometer
mb
20260504011204 72 168 0.0 3.0 0.00 0.00 0.00 48 1010.9
20260504010703 72 204 1.0 3.0 0.00 0.00 0.00 48 1010.8
20260504010204 73 176 1.0 5.0 0.00 0.00 0.00 47 1010.8
20260504005704 73 183 1.0 5.0 0.00 0.00 0.00 47 1010.8
20260504005204 73 187 2.0 5.0 0.00 0.00 0.00 46 1010.8
20260504004204 74 171 2.0 6.0 0.00 0.00 0.00 45 1011.0
20260504003703 75 192 1.0 6.0 0.00 0.00 0.00 44 1010.8
20260504003203 75 187 2.0 6.0 0.00 0.00 0.00 44 1010.8
20260504002704 76 194 2.0 6.0 0.00 0.00 0.00 43 1010.9
20260504002204 76 188 1.0 7.0 0.00 0.00 0.00 43 1011.0
20260504001704 77 196 2.0 6.0 0.00 0.00 0.00 41 1010.9
20260504001204 77 187 2.0 8.0 0.00 0.00 0.00 41 1010.9
20260504000704 78 193 2.0 8.0 0.00 0.00 0.00 41 1010.9
20260504000204 78 165 3.0 9.0 0.00 0.00 0.00 41 1011.0
20260503235703 77 227 3.0 9.0 0.00 0.00 0.00 41 1011.0
20260503235203 77 188 3.0 7.0 0.00 0.00 0.00 41 1011.1
20260503234704 77 213 5.0 7.0 0.00 0.00 0.00 41 1011.1
20260503234204 77 205 6.0 12.0 0.00 0.00 0.00 40 1011.2
20260503233703 77 208 2.0 6.0 0.00 0.00 0.00 40 1011.2
20260503233203 77 210 3.0 8.0 0.00 0.00 0.00 40 1011.1
20260503232703 78 214 3.0 9.0 0.00 0.00 0.00 38 1011.2
20260503232203 79 229 3.0 12.0 0.00 0.00 0.00 38 1011.2
20260503231703 79 177 3.0 12.0 0.00 0.00 0.00 37 1011.3
20260503230703 80 256 3.0 6.0 0.00 0.00 0.00 37 1011.3
20260503230204 80 218 3.0 10.0 0.00 0.00 0.00 37 1011.3
20260503225704 80 223 2.0 8.0 0.00 0.00 0.00 37 1011.3
20260503225204 80 202 2.0 9.0 0.00 0.00 0.00 37 1011.4
20260503224704 80 245 4.0 9.0 0.00 0.00 0.00 35 1011.4
20260503224204 80 197 3.0 6.0 0.00 0.00 0.00 37 1011.3
20260503223203 80 257 3.0 8.0 0.00 0.00 0.00 36 1011.6
20260503222203 80 224 4.0 14.0 0.00 0.00 0.00 35 1011.5
20260503221704 80 258 4.0 10.0 0.00 0.00 0.00 35 1011.7
20260503221203 80 234 4.0 9.0 0.00 0.00 0.00 37 1011.7
20260503220704 80 266 2.0 9.0 0.00 0.00 0.00 35 1011.8
20260503220204 80 227 5.0 13.0 0.00 0.00 0.00 36 1011.8
20260503215703 80 182 4.0 15.0 0.00 0.00 0.00 36 1011.8
20260503215203 80 181 5.0 15.0 0.00 0.00 0.00 35 1011.9
20260503214704 80 206 4.0 13.0 0.00 0.00 0.00 35 1011.9
20260503214203 80 222 4.0 12.0 0.00 0.00 0.00 36 1011.9
20260503213703 80 234 4.0 13.0 0.00 0.00 0.00 36 1012.0
20260503213204 80 197 6.0 13.0 0.00 0.00 0.00 36 1012.1
20260503212204 80 180 3.0 9.0 0.00 0.00 0.00 36 1012.3
20260503211703 81 194 6.0 13.0 0.00 0.00 0.00 35 1012.4
20260503211204 81 149 1.0 6.0 0.00 0.00 0.00 37 1012.3
20260503210704 80 240 5.0 12.0 0.00 0.00 0.00 36 1012.6
20260503205703 81 232 3.0 8.0 0.00 0.00 0.00 36 1012.7
20260503205204 80 144 5.0 9.0 0.00 0.00 0.00 36 1012.8
20260503204703 80 168 5.0 12.0 0.00 0.00 0.00 36 1012.9
20260503204204 80 191 3.0 14.0 0.00 0.00 0.00 37 1013.0
20260503203203 80 179 3.0 14.0 0.00 0.00 0.00 38 1013.1
20260503202704 80 217 3.0 9.0 0.00 0.00 0.00 38 1013.2
20260503202204 79 203 5.0 12.0 0.00 0.00 0.00 39 1013.3
20260503201204 79 223 8.0 14.0 0.00 0.00 0.00 37 1013.5
20260503200704 79 221 3.0 9.0 0.00 0.00 0.00 40 1013.6
20260503200203 79 236 5.0 12.0 0.00 0.00 0.00 38 1013.7
20260503195703 79 251 4.0 8.0 0.00 0.00 0.00 40 1013.8
20260503195203 78 271 3.0 7.0 0.00 0.00 0.00 38 1013.9
20260503194703 79 183 6.0 12.0 0.00 0.00 0.00 39 1014.1
20260503194203 78 224 6.0 12.0 0.00 0.00 0.00 40 1014.1
20260503193204 79 233 3.0 12.0 0.00 0.00 0.00 39 1014.3
20260503192703 78 256 2.0 6.0 0.00 0.00 0.00 40 1014.4
20260503192203 78 233 5.0 12.0 0.00 0.00 0.00 39 1014.5
20260503185203 77 292 2.0 8.0 0.00 0.00 0.00 44 1014.8
20260503184704 76 265 3.0 7.0 0.00 0.00 0.00 42 1014.9
20260503184204 76 248 4.0 12.0 0.00 0.00 0.00 42 1015.1
20260503183703 76 123 3.0 12.0 0.00 0.00 0.00 44 1015.2
20260503182704 76 212 3.0 10.0 0.00 0.00 0.00 44 1015.4
20260503182203 75 208 3.0 7.0 0.00 0.00 0.00 45 1015.5
20260503181704 75 210 6.0 14.0 0.00 0.00 0.00 44 1015.6
20260503181204 75 208 5.0 12.0 0.00 0.00 0.00 44 1015.8
20260503180703 75 136 3.0 7.0 0.00 0.00 0.00 45 1015.8
20260503180204 75 261 4.0 7.0 0.00 0.00 0.00 45 1015.9
20260503175703 75 224 2.0 7.0 0.00 0.00 0.00 47 1016.0
20260503175204 74 236 3.0 8.0 0.00 0.00 0.00 46 1016.1
20260503174704 74 273 2.0 12.0 0.00 0.00 0.00 47 1016.1
20260503174204 74 227 5.0 12.0 0.00 0.00 0.00 47 1016.3
20260503173204 73 243 4.0 9.0 0.00 0.00 0.00 48 1016.5
20260503172703 73 221 5.0 14.0 0.00 0.00 0.00 48 1016.6
20260503172203 73 224 3.0 7.0 0.00 0.00 0.00 48 1016.7
20260503171204 72 216 5.0 12.0 0.00 0.00 0.00 50 1016.8
20260503170204 72 242 4.0 10.0 0.00 0.00 0.00 49 1016.9
20260503160204 66 219 4.0 10.0 0.00 0.00 0.00 53 1017.4
20260503150704 61 176 2.0 8.0 0.00 0.00 0.00 60 1018.2
20260503150204 60 207 4.0 7.0 0.00 0.00 0.00 60 1018.2
20260503131204 49 168 0.0 2.0 0.00 0.00 0.00 80 1019.1
20260503130703 49 162 0.0 6.0 0.00 0.00 0.00 81 1019.1
20260503130204 49 192 1.0 2.0 0.00 0.00 0.00 81 1019.1
20260503110703 40 86 0.0 0.0 0.00 0.00 0.00 91 1018.5
20260503110203 41 86 0.0 0.0 0.00 0.00 0.00 91 1018.5
20260503100204 41 103 0.0 0.0 0.00 0.00 0.00 90 1018.4
20260503090203 42 108 0.0 0.0 0.00 0.00 0.00 87 1018.8
20260503081203 42 233 0.0 0.0 0.00 0.00 0.00 88 1019.1
20260503080204 42 242 0.0 0.0 0.00 0.00 0.00 87 1019.0
20260503072703 42 243 0.0 0.0 0.00 0.00 0.00 85 1019.2
20260503072204 42 243 0.0 0.0 0.00 0.00 0.00 85 1019.2
20260503071704 42 243 0.0 0.0 0.00 0.00 0.00 85 1019.1
20260503071204 42 243 0.0 0.0 0.00 0.00 0.00 84 1019.2
20260503070703 43 243 0.0 0.0 0.00 0.00 0.00 83 1019.2
20260503070204 43 243 0.0 0.0 0.00 0.00 0.00 83 1019.3
20260503060203 44 243 0.0 0.0 0.00 0.00 0.00 79 1019.8
20260503054703 44 243 0.0 0.0 0.00 0.00 0.00 80 1019.8
20260503054204 45 243 0.0 0.0 0.00 0.00 0.00 79 1019.8
20260503053704 45 243 0.0 0.0 0.00 0.00 0.00 77 1019.8
20260503053204 46 243 0.0 0.0 0.00 0.00 0.00 76 1019.7
20260503052703 47 243 0.0 0.0 0.00 0.00 0.00 75 1019.7
20260503052204 47 243 0.0 0.0 0.00 0.00 0.00 73 1019.7
20260503051703 46 243 0.0 0.0 0.00 0.00 0.00 73 1019.7
20260503051204 45 243 0.0 0.0 0.00 0.00 0.00 75 1019.7
20260503050703 44 243 0.0 0.0 0.00 0.00 0.00 78 1019.6
20260503050204 43 243 0.0 0.0 0.00 0.00 0.00 79 1019.6
20260503045704 43 243 0.0 0.0 0.00 0.00 0.00 78 1019.7
20260503045203 44 243 0.0 0.0 0.00 0.00 0.00 78 1019.6
20260503044704 44 243 0.0 0.0 0.00 0.00 0.00 78 1019.6
20260503044203 44 243 0.0 0.0 0.00 0.00 0.00 78 1019.6
20260503043203 45 243 0.0 0.0 0.00 0.00 0.00 77 1019.6
20260503042204 45 243 0.0 0.0 0.00 0.00 0.00 77 1019.6
20260503041704 45 243 0.0 0.0 0.00 0.00 0.00 75 1019.5
20260503041203 45 243 0.0 0.0 0.00 0.00 0.00 73 1019.5
20260503040203 46 243 0.0 0.0 0.00 0.00 0.00 74 1019.5
20260503035204 46 243 0.0 0.0 0.00 0.00 0.00 74 1019.6
20260503034703 46 243 0.0 0.0 0.00 0.00 0.00 74 1019.6
20260503034204 47 243 0.0 0.0 0.00 0.00 0.00 73 1019.6
20260503033704 47 243 0.0 0.0 0.00 0.00 0.00 73 1019.6
20260503033204 47 243 0.0 0.0 0.00 0.00 0.00 72 1019.6
20260503032703 48 243 0.0 0.0 0.00 0.00 0.00 72 1019.6
20260503032203 48 243 0.0 0.0 0.00 0.00 0.00 69 1019.5
20260503031203 49 243 0.0 0.0 0.00 0.00 0.00 68 1019.4
20260503030704 49 243 0.0 0.0 0.00 0.00 0.00 68 1019.4
20260503030203 49 243 0.0 0.0 0.00 0.00 0.00 70 1019.5
20260503025204 50 243 0.0 0.0 0.00 0.00 0.00 69 1019.3
20260503024703 50 243 0.0 0.0 0.00 0.00 0.00 66 1019.3
20260503024204 50 243 0.0 0.0 0.00 0.00 0.00 65 1019.2
20260503023203 51 243 0.0 0.0 0.00 0.00 0.00 64 1019.2
20260503022704 51 243 0.0 0.0 0.00 0.00 0.00 64 1019.0
20260503022203 51 243 0.0 0.0 0.00 0.00 0.00 64 1019.1
20260503021203 51 243 0.0 0.0 0.00 0.00 0.00 63 1019.0
20260503020204 52 243 0.0 0.0 0.00 0.00 0.00 63 1018.9
20260503015703 52 243 0.0 0.0 0.00 0.00 0.00 62 1018.9
20260503015204 52 243 0.0 0.0 0.00 0.00 0.00 63 1018.9
20260503014204 53 243 0.0 0.0 0.00 0.00 0.00 63 1018.8
20260503013704 54 243 0.0 0.0 0.00 0.00 0.00 61 1018.8
20260503013204 54 243 0.0 0.0 0.00 0.00 0.00 59 1018.7
20260503012704 55 243 0.0 0.0 0.00 0.00 0.00 58 1018.7
20260503011703 56 243 0.0 0.0 0.00 0.00 0.00 57 1018.5